Regional Weather Roundup
Issued by NWS

Home | Current Version | Previous Version | Graphics & Text | Print | Product List | Glossary On
Versions: 1 2 3 4 5 6 7 8 9 10 11 12 13 14 15 16 17 18 19 20 21 22 23 24 25 26 27 28 29 30 31 32 33 34 35 36 37 38 39 40 41 42 43 44 45 46 47 48 49 50
000
ASUS44 KMEG 280010
RWRTN
TENNESSEE HOURLY STATE WEATHER ROUNDUP
NATIONAL WEATHER SERVICE MEMPHIS TN
700 PM CDT SUN JUL 27 2014

TNZ002-004-019-021-049-052-054-088>092-280100-
WEST TENNESSEE

CITY           SKY/WX    TMP DP  RH WIND       PRES   REMARKS
MEMPHIS INTL   PTSUNNY   89  77  67 SW9       29.94S HX 101
NWS MEMPHIS      N/A     89 N/A N/A MISG        N/A
JACKSON        CLOUDY    86  77  74 SW9       29.90F HX  97
DYERSBURG      CLOUDY    88  72  58 SW10      29.91R HX  94
UNION CITY     MOSUNNY   88  79  74 SW9       29.87R HX 102
PARIS          MOSUNNY   86  76  71 W10       29.88S HX  96
LEXINGTON      MOSUNNY   86  77  74 SW8       29.89S HX  97
SAVANNAH       SUNNY     86  79  79 SW7       29.93S HX  99
$$

TNZ008-025-027-028-033-062-065-066-280100-
NORTH MIDDLE TENNESSEE

CITY           SKY/WX    TMP DP  RH WIND       PRES   REMARKS
NASHVILLE      MOCLDY    89  75  63 W12G25    29.86R HX  99
DICKSON        PTSUNNY   88  75  66 W18       29.88S HX  97
PORTLAND       CLEAR     88  73  62 W14       29.83S HX  96
CLARKSVILLE    MOSUNNY   89  74  60 W9G20     29.84S HX  98
LEBANON        CLOUDY    89  75  63 SW9       29.84R HX  98
SMYRNA         MOCLDY    89  77  67 W16       29.86R HX 101
COOKEVILLE     PTCLDY    88  75  66 SW10      29.88R HX  97
LIVINGSTON       N/A     83  74  74 SW10      29.87
GALLATIN       MOCLDY    91  76  61 W13       29.85R HX 102
CROSSVILLE     MOCLDY    82  71  69 SW10G17   29.94R
$$

TNZ061-075-076-078-094-096-097-280100-
SOUTH MIDDLE TENNESSEE

CITY           SKY/WX    TMP DP  RH WIND       PRES   REMARKS
LEWISBURG      MOCLDY    88  75  65 SW9       29.89S HX  97
FAYETTEVILLE   CLEAR     82  72  69 W10       29.94R
TULLAHOMA      PTCLDY    84  72  65 SW13      29.94R
WINCHESTER     CLEAR     84  73  70 VRB3      29.94R HX  91
MCMINNVILLE      N/A     86  75  70 SW9       29.91R HX  95
COLUMBIA       MOSUNNY   88  79  74 SW10      29.89R HX 102
SHELBYVILLE    PTCLDY    88  75  66 SW16      29.91R HX  97
$$

TNZ017-018-042-046-047-280100-
NORTHEAST TENNESSEE

CITY           SKY/WX    TMP DP  RH WIND       PRES   REMARKS
TRI CITIES     CLOUDY    70  67  90 CALM      29.90F
ELIZABETHTON   MOCLDY    70  68  94 SE5       29.90F
$$

TNZ012-013-036-069-073-074-280100-
CENTRAL EAST TENNESSEE

CITY           SKY/WX    TMP DP  RH WIND       PRES   REMARKS
KNOXVILLE      CLOUDY    85  69  58 SW14      29.87R
GATLINBURG     CLOUDY    75  64  69 NW21G26   29.98R
MORRISTOWN     PTCLDY    68  66  94 W13       29.92F
$$

TNZ083-085-099-280100-
SOUTHEAST TENNESSEE

CITY           SKY/WX    TMP DP  RH WIND       PRES   REMARKS
CHATTANOOGA    MOCLDY    90  70  51 SW13      29.91R HX  95
$$

SKY/WX REPORTED AS FAIR MEANS FEW OR NO CLOUDS BELOW
12 THOUSAND FEET.




USA.gov is the U.S. government's official web portal to all federal, state and local government web resources and services.